Нагорный

Россия / Республика Саха (Якутия)     55°55′03″N   124°58′36″E
темп.,
°C
ветер,
м/с
пор.,
м/с
влажн.,
%
обл.,
%
осадки,
мм/ч
давл.,
гПа
погр.,
м
3 марта, ср
ср300:00−28ююв22100100 0.1 102326
03:00−29юв2299100 0.3 102123
06:00−30юв22100100 0.1 102021
09:00−29вюв1297100 0.2 1019142
12:00−27вюв2285100 0.1 1017448
15:00−26всв1177100 0.2 1015508
18:00−28с1295100 0.0 101619
21:00−31с239991 0.0 101819
4 марта, чт
чт400:00−33ссз339943 0.0 102019
03:00−32с449963 0.0 102125
06:00−33с559896 0.0 102349
09:00−31с5149589 0.0 1025437
12:00−28с11158878 0.0 1024839
15:00−28с10148589 0.0 10261011
18:00−30ссз91688100 0.0 1029683
21:00−32с101891100 0.1 1032719
5 марта, пт
пт500:00−32с81892100 0.1 1034793
03:00−32ссз81892100 0.1 1035748
06:00−32ссз91990100 0.0 1036671
09:00−32ссз9198796 0.1 1038785
12:00−27ссз10167996 0.0 1036952
15:00−25ссз8127986 0.0 1035900
18:00−28с458527 0.0 103655
21:00−32сз237614 0.0 103819
6 марта, сб
сб600:00−34сз22730 0.0 103719
03:00−34сз22670 0.0 103819
06:00−35ссз11590 0.0 103719
09:00−29зсз11620 0.0 103621
12:00−23ююз22500 0.0 1031252
15:00−18ю22650 0.0 1028356
18:00−22ю22877 0.0 102720
21:00−26ююз229718 0.0 102920
7 марта, вс
вс700:00−26ю129595 0.0 102720
03:00−26ю228894 0.0 102619
06:00−26ю118799 0.0 102619
09:00−24ю118498 0.0 102649
12:00−18ююз2274100 0.0 1024225
15:00−13ю228089 0.0 1022324
18:00−16ю129566 0.0 102320
21:00−21юз229559 0.0 102520